Simultaneous Nadir Overpasses (SNOs) Predictions

Prediction of SNOs between METOP-A and TERRA Satellite Orbit:

Table of predicted SNOs for the next 14.0 days since TLE Epoch: 3/27/2021
Index Date (METOP-A) Time (METOP-A) Lat,Lon (METOP-A) SZA (METOP-A ) Date (TERRA) Time (TERRA) Lat,Lon (TERRA) SZA (TERRA ) Distance(km) Time Diff (sec)
1 03/29/2021 06:25:56 -81.34, -49.60 99.54 03/29/2021 06:27:01 -81.34, -49.59 99.51 0.40 65
2 03/29/2021 07:16:37 81.34, 117.78 80.46 03/29/2021 07:16:28 81.33, 117.78 80.44 1.14 9
3 04/01/2021 02:00:18 -81.35, 16.56 100.63 04/01/2021 02:01:14 -81.33, 16.69 100.60 2.53 56
4 04/01/2021 02:50:58 81.33,-175.70 79.40 04/01/2021 02:50:40 81.34,-175.59 79.41 1.88 18
5 04/03/2021 21:34:37 -81.33, 83.47 101.64 04/03/2021 21:35:25 -81.34, 83.29 101.62 3.45 48
6 04/03/2021 22:25:18 81.33,-109.20 78.36 04/03/2021 22:24:52 81.32,-109.39 78.32 3.21 26
7 04/06/2021 17:08:59 -81.33, 149.59 102.70 04/06/2021 17:09:38 -81.33, 149.47 102.70 2.05 39
8 04/06/2021 17:59:39 81.32, -42.73 77.32 04/06/2021 17:59:04 81.33, -42.86 77.30 2.34 35
9 04/09/2021 12:43:20 -81.33,-143.93 103.72 04/09/2021 12:43:50 -81.33,-144.02 103.72 1.48 30



Historial Predications of SNOs between METOP-A and TERRA
